GW5023 Weather Reports


time (UTC)temp
F
wind
direction
speed
knots
gust
knots
rain 1hr
in
rain 24hr
in
rain mn
in
humidity
%
barometer
mb
20260906123014 67 205 0.0 1.7 0.00 0.82 0.00 93 1016.2
20260906121515 66 197 0.0 1.7 0.00 0.88 0.00 94 1016.0
20260906120020 66 182 0.0 1.7 0.00 0.88 0.00 94 1015.9
20260906114504 66 171 0.0 1.7 0.00 0.88 0.00 94 1015.7
20260906113008 66 169 0.0 1.7 0.00 0.88 0.00 94 1015.6
20260906111520 66 176 0.9 1.7 0.00 0.88 0.00 94 1015.4
20260906110019 66 188 0.0 1.7 0.00 0.88 0.00 94 1015.1
20260906104529 66 221 0.9 1.7 0.00 0.88 0.00 94 1014.9
20260906103004 66 199 0.0 1.7 0.00 0.88 0.00 94 1014.9
20260906101512 66 199 0.0 1.7 0.00 0.88 0.00 94 1014.7
20260906100017 66 199 0.0 0.0 0.00 0.88 0.00 94 1014.8
20260906094531 66 199 0.0 1.7 0.00 0.88 0.00 94 1014.8
20260906093027 67 179 0.0 1.7 0.00 0.88 0.00 94 1014.9
20260906091519 67 179 0.0 1.7 0.00 0.88 0.00 94 1014.8
20260906090015 67 209 0.0 0.9 0.00 0.88 0.00 94 1014.6
20260906084525 67 186 0.0 1.7 0.00 0.88 0.00 94 1014.6
20260906083036 67 187 0.9 1.7 0.00 0.88 0.00 94 1014.9
20260906081535 67 153 0.0 1.7 0.00 0.88 0.00 94 1014.6
20260906080012 67 153 0.0 1.7 0.00 0.88 0.00 94 1014.5
20260906074519 67 62 0.0 1.7 0.00 0.88 0.00 94 1014.3
20260906073024 67 71 0.9 1.7 0.00 0.88 0.00 94 1014.3
20260906071530 67 63 0.0 1.7 0.00 0.88 0.00 94 1014.6
20260906070011 67 63 0.9 1.7 0.00 0.88 0.00 94 1014.9
20260906064518 67 43 0.0 1.7 0.00 0.88 0.00 94 1014.7
20260906063021 67 42 0.9 1.7 0.00 0.88 0.00 94 1014.7
20260906061529 67 94 0.0 1.7 0.00 0.88 0.00 94 1014.7
20260906060030 68 55 0.0 1.7 0.00 0.88 0.00 94 1014.5
20260906054516 68 55 0.9 0.9 0.00 0.88 0.00 94 1014.6
20260906053026 68 90 0.0 1.7 0.00 0.88 0.00 94 1014.6
20260906051532 68 55 0.0 1.7 0.00 0.88 0.00 94 1014.4
20260906050049 68 55 0.0 1.7 0.00 0.88 0.00 94 1014.5
20260906044533 68 55 0.9 1.7 0.00 0.88 0.00 94 1014.5
20260906043018 69 123 0.0 1.7 0.00 0.88 0.00 94 1014.9
20260906041524 69 95 0.0 1.7 0.00 0.88 0.00 94 1015.2
20260906040030 69 299 0.0 1.7 0.00 0.88 0.00 94 1015.3
20260906034539 69 105 0.0 1.7 0.13 0.88 0.88 94 1015.1
20260906033021 69 142 0.0 1.7 0.24 0.88 0.88 94 1015.6
20260906031525 69 86 0.0 1.7 0.24 0.88 0.88 93 1015.6
20260906030027 69 40 0.9 2.6 0.24 0.88 0.88 93 1015.6
20260906024531 68 266 0.9 1.7 0.11 0.75 0.75 93 1015.6
20260906023035 68 135 0.0 1.7 0.00 0.64 0.64 93 1015.3
20260906021517 68 36 0.9 1.7 0.00 0.64 0.64 93 1015.4
20260906020028 68 109 0.9 1.7 0.00 0.64 0.64 93 1015.2
20260906014534 69 155 0.0 1.7 0.00 0.64 0.64 93 1015.2
20260906013030 68 185 0.9 1.7 0.00 0.64 0.64 93 1015.0
20260906011520 69 51 0.9 1.7 0.00 0.64 0.64 93 1014.9
20260906010024 69 92 0.9 1.7 0.00 0.64 0.64 92 1014.5
20260906004527 69 46 0.9 1.7 0.00 0.64 0.64 92 1014.2
20260906003029 69 61 0.0 0.9 0.00 0.64 0.64 92 1014.3
20260906001516 70 61 0.0 1.7 0.00 0.64 0.64 91 1014.0
20260906000018 71 61 0.0 1.7 0.00 0.64 0.64 90 1014.0
20260905234525 71 30 0.0 1.7 0.00 0.64 0.64 89 1014.1
20260905233031 72 42 0.0 1.7 0.00 0.64 0.64 87 1014.0
20260905231511 73 48 0.9 1.7 0.00 0.64 0.64 85 1014.2
20260905230015 74 17 0.0 1.7 0.00 0.64 0.64 84 1014.3
20260905224525 75 62 0.9 1.7 0.00 0.64 0.64 83 1014.2
20260905223027 76 29 0.9 0.9 0.00 0.64 0.64 82 1014.3
20260905221531 78 202 1.7 3.5 0.00 0.64 0.64 74 1014.2
20260905220019 78 272 0.9 2.6 0.00 0.64 0.64 77 1014.0
20260905214520 77 292 0.0 2.6 0.00 0.64 0.64 76 1014.0
20260905213027 80 227 1.7 4.3 0.00 0.64 0.64 67 1013.8
20260905211531 81 248 1.7 4.3 0.00 0.64 0.64 66 1013.7
20260905210042 81 219 1.7 4.3 0.00 0.64 0.64 66 1013.5
20260905204520 82 199 2.6 4.3 0.00 0.64 0.64 64 1013.5
20260905203027 80 45 1.7 8.7 0.00 0.65 0.64 65 1013.5
20260905201537 81 70 1.7 7.0 0.00 0.90 0.64 64 1013.6
20260905200041 82 199 3.5 7.8 0.00 0.91 0.64 64 1013.7
20260905194518 82 200 2.6 6.1 0.00 0.91 0.64 63 1013.8
20260905193028 81 232 1.7 4.3 0.00 0.91 0.64 65 1014.0
20260905191528 82 211 0.9 5.2 0.00 0.91 0.64 66 1014.2
20260905190031 81 288 0.9 5.2 0.00 0.91 0.64 63 1014.4
20260905184537 81 251 1.7 3.5 0.00 0.91 0.64 67 1014.6
20260905183026 81 244 1.7 5.2 0.00 0.91 0.64 64 1014.7
20260905181527 81 216 2.6 7.8 0.00 0.91 0.64 65 1015.0
20260905180030 80 227 1.7 3.5 0.00 0.91 0.64 69 1015.2
20260905174536 80 227 3.5 8.7 0.00 0.91 0.64 67 1015.6
20260905173031 79 250 1.7 5.2 0.00 0.91 0.64 71 1015.8
20260905171523 78 158 0.9 5.2 0.00 0.91 0.64 74 1016.0
20260905170030 77 31 0.9 7.0 0.00 0.91 0.64 77 1016.1
20260905164533 78 198 5.2 7.8 0.00 0.91 0.64 77 1016.0
20260905163034 76 231 0.9 4.3 0.00 0.91 0.64 81 1016.1
20260905161505 75 51 0.9 3.5 0.00 0.91 0.64 84 1016.1
20260905160013 75 218 3.5 5.2 0.00 0.91 0.64 84 1015.9
20260905154506 73 250 1.7 3.5 0.00 0.91 0.64 91 1015.7
20260905153008 70 360 0.0 1.7 0.01 0.91 0.64 92 1015.2
20260905151508 69 36 0.0 2.6 0.06 0.91 0.64 93 1015.3
20260905150016 68 18 1.7 2.6 0.06 0.91 0.64 94 1015.5
20260905144530 68 56 0.9 1.7 0.06 0.91 0.64 94 1016.5
20260905143010 67 88 0.9 1.7 0.09 0.90 0.63 94 1016.8
20260905141507 67 273 0.0 1.7 0.09 0.85 0.58 94 1017.2
20260905140011 67 9 0.9 1.7 0.13 0.85 0.58 94 1017.2
20260905134514 67 101 0.0 3.5 0.21 0.85 0.58 94 1017.1
20260905133009 67 57 0.9 1.7 0.49 0.81 0.54 94 1017.6
20260905131509 67 333 1.7 1.7 0.49 0.76 0.49 94 1018.2
20260905130011 68 38 0.9 2.6 0.45 0.72 0.45 94 1018.0
20260905124509 69 69 0.0 2.6 0.37 0.64 0.37 93 1018.1